| time (UTC) | temp F | wind direction | speed MPH | gust MPH | rain 1hr in | rain 24hr in | rain mn in | humidity % | barometer mb |
| 20260508092507 | 54 | 325 | 2.0 | 9.0 | 0.00 | 0.00 | 0.00 | 32 | 1024.9 |
| 20260508092004 | 54 | 328 | 2.0 | 8.0 | 0.00 | 0.00 | 0.00 | 32 | 1024.9 |
| 20260508091505 | 54 | 306 | 2.0 | 8.0 | 0.00 | 0.00 | 0.00 | 31 | 1024.8 |
| 20260508091004 | 54 | 275 | 3.0 | 13.0 | 0.00 | 0.00 | 0.00 | 32 | 1024.8 |
| 20260508090505 | 54 | 286 | 3.0 | 13.0 | 0.00 | 0.00 | 0.00 | 32 | 1024.9 |
| 20260508090005 | 54 | 320 | 1.0 | 6.0 | 0.00 | 0.00 | 0.00 | 32 | 1024.9 |
| 20260508085505 | 53 | 295 | 2.0 | 7.0 | 0.00 | 0.00 | 0.00 | 32 | 1024.8 |
| 20260508085004 | 53 | 291 | 3.0 | 9.0 | 0.00 | 0.00 | 0.00 | 32 | 1024.8 |
| 20260508084505 | 53 | 292 | 3.0 | 11.0 | 0.00 | 0.00 | 0.00 | 33 | 1024.8 |
| 20260508084004 | 53 | 319 | 4.0 | 13.0 | 0.00 | 0.00 | 0.00 | 32 | 1024.8 |
| 20260508083505 | 54 | 5 | 3.0 | 13.0 | 0.00 | 0.00 | 0.00 | 33 | 1024.8 |
| 20260508083005 | 54 | 5 | 2.0 | 11.0 | 0.00 | 0.00 | 0.00 | 33 | 1024.7 |
| 20260508082504 | 53 | 3 | 3.0 | 10.0 | 0.00 | 0.00 | 0.00 | 32 | 1024.6 |
| 20260508082004 | 53 | 345 | 3.0 | 10.0 | 0.00 | 0.00 | 0.00 | 33 | 1024.7 |
| 20260508081504 | 53 | 346 | 3.0 | 12.0 | 0.00 | 0.00 | 0.00 | 33 | 1024.7 |
| 20260508081004 | 53 | 327 | 3.0 | 12.0 | 0.00 | 0.00 | 0.00 | 35 | 1024.6 |
| 20260508080504 | 52 | 279 | 2.0 | 10.0 | 0.00 | 0.00 | 0.00 | 36 | 1024.6 |
| 20260508075504 | 51 | 351 | 3.0 | 13.0 | 0.00 | 0.00 | 0.00 | 36 | 1024.6 |
| 20260508075005 | 51 | 282 | 3.0 | 11.0 | 0.00 | 0.00 | 0.00 | 40 | 1024.5 |
| 20260508074504 | 51 | 272 | 4.0 | 11.0 | 0.00 | 0.00 | 0.00 | 40 | 1024.4 |
| 20260508074007 | 51 | 280 | 3.0 | 10.0 | 0.00 | 0.00 | 0.00 | 42 | 1024.4 |
| 20260508073505 | 51 | 281 | 2.0 | 5.0 | 0.00 | 0.00 | 0.00 | 46 | 1024.3 |
| 20260508073004 | 51 | 267 | 2.0 | 11.0 | 0.00 | 0.00 | 0.00 | 46 | 1024.3 |
| 20260508072505 | 50 | 274 | 3.0 | 11.0 | 0.00 | 0.00 | 0.00 | 45 | 1024.3 |
| 20260508072004 | 50 | 286 | 2.0 | 8.0 | 0.00 | 0.00 | 0.00 | 49 | 1024.2 |
| 20260508071504 | 50 | 290 | 2.0 | 8.0 | 0.00 | 0.00 | 0.00 | 50 | 1024.2 |
| 20260508071006 | 50 | 280 | 1.0 | 7.0 | 0.00 | 0.00 | 0.00 | 53 | 1024.2 |
| 20260508070505 | 50 | 292 | 2.0 | 7.0 | 0.00 | 0.00 | 0.00 | 55 | 1024.1 |
| 20260508065505 | 49 | 259 | 2.0 | 8.0 | 0.00 | 0.00 | 0.00 | 58 | 1024.0 |
| 20260508065004 | 48 | 280 | 1.0 | 6.0 | 0.00 | 0.00 | 0.00 | 61 | 1023.9 |
| 20260508064505 | 48 | 273 | 2.0 | 8.0 | 0.00 | 0.00 | 0.00 | 61 | 1023.9 |
| 20260508064004 | 48 | 270 | 2.0 | 8.0 | 0.00 | 0.00 | 0.00 | 60 | 1023.9 |
| 20260508063505 | 47 | 267 | 1.0 | 7.0 | 0.00 | 0.00 | 0.00 | 63 | 1023.9 |
| 20260508062505 | 47 | 282 | 1.0 | 5.0 | 0.00 | 0.00 | 0.00 | 67 | 1023.8 |
| 20260508061505 | 46 | 249 | 2.0 | 4.0 | 0.00 | 0.00 | 0.00 | 70 | 1023.7 |
| 20260508061005 | 45 | 247 | 2.0 | 6.0 | 0.00 | 0.00 | 0.00 | 71 | 1023.6 |
| 20260508060004 | 44 | 253 | 2.0 | 6.0 | 0.00 | 0.00 | 0.00 | 74 | 1023.5 |
| 20260508055506 | 44 | 265 | 1.0 | 6.0 | 0.00 | 0.00 | 0.00 | 75 | 1023.5 |
| 20260508055005 | 43 | 221 | 1.0 | 4.0 | 0.00 | 0.00 | 0.00 | 77 | 1023.4 |
| 20260508054506 | 43 | 217 | 2.0 | 5.0 | 0.00 | 0.00 | 0.00 | 78 | 1023.4 |
| 20260508054004 | 42 | 219 | 2.0 | 5.0 | 0.00 | 0.00 | 0.00 | 79 | 1023.3 |
| 20260508053505 | 42 | 220 | 2.0 | 5.0 | 0.00 | 0.00 | 0.00 | 81 | 1023.3 |
| 20260508053004 | 41 | 230 | 2.0 | 6.0 | 0.00 | 0.00 | 0.00 | 82 | 1023.2 |
| 20260508052506 | 40 | 258 | 1.0 | 6.0 | 0.00 | 0.00 | 0.00 | 83 | 1023.2 |
| 20260508052003 | 40 | 275 | 1.0 | 6.0 | 0.00 | 0.00 | 0.00 | 84 | 1023.0 |
| 20260508051505 | 40 | 268 | 2.0 | 6.0 | 0.00 | 0.00 | 0.00 | 84 | 1023.1 |
| 20260508051004 | 39 | 239 | 2.0 | 6.0 | 0.00 | 0.00 | 0.00 | 85 | 1023.0 |
| 20260508050505 | 39 | 221 | 2.0 | 4.0 | 0.00 | 0.00 | 0.00 | 85 | 1022.9 |
| 20260508050008 | 38 | 229 | 2.0 | 6.0 | 0.00 | 0.00 | 0.00 | 86 | 1022.9 |
| 20260508045505 | 38 | 215 | 3.0 | 6.0 | 0.00 | 0.00 | 0.00 | 86 | 1022.8 |
| 20260508045004 | 38 | 199 | 2.0 | 6.0 | 0.00 | 0.00 | 0.00 | 87 | 1022.8 |
| 20260508043506 | 37 | 259 | 2.0 | 7.0 | 0.00 | 0.00 | 0.00 | 89 | 1022.7 |
| 20260508043004 | 37 | 248 | 2.0 | 7.0 | 0.00 | 0.00 | 0.00 | 90 | 1022.7 |
| 20260508041504 | 35 | 245 | 2.0 | 4.0 | 0.00 | 0.00 | 0.00 | 93 | 1022.5 |
| 20260508041004 | 35 | 230 | 1.0 | 4.0 | 0.00 | 0.00 | 0.00 | 94 | 1022.4 |
| 20260508040507 | 34 | 219 | 0.0 | 3.0 | 0.00 | 0.00 | 0.00 | 94 | 1022.4 |
| 20260508035004 | 32 | 217 | 1.0 | 3.0 | 0.00 | 0.00 | 0.00 | 94 | 1022.2 |
| 20260508034505 | 31 | 216 | 0.0 | 3.0 | 0.00 | 0.00 | 0.00 | 94 | 1022.2 |
| 20260508034004 | 30 | 215 | 0.0 | 2.0 | 0.00 | 0.00 | 0.00 | 93 | 1022.1 |
| 20260508033006 | 30 | 215 | 0.0 | 3.0 | 0.00 | 0.00 | 0.00 | 94 | 1022.0 |
| 20260508032504 | 29 | 215 | 0.0 | 3.0 | 0.00 | 0.00 | 0.00 | 93 | 1022.0 |
| 20260508031504 | 28 | 203 | 0.0 | 1.0 | 0.00 | 0.00 | 0.00 | 92 | 1021.9 |
| 20260508025505 | 28 | 0 | 0.0 | 0.0 | 0.00 | 0.00 | 0.00 | 90 | 1021.8 |
| 20260508025004 | 28 | 0 | 0.0 | 0.0 | 0.00 | 0.00 | 0.00 | 90 | 1021.6 |
| 20260508024505 | 28 | 0 | 0.0 | 0.0 | 0.00 | 0.00 | 0.00 | 90 | 1021.7 |
| 20260508024005 | 28 | 0 | 0.0 | 0.0 | 0.00 | 0.00 | 0.00 | 90 | 1021.7 |
| 20260508023005 | 28 | 0 | 0.0 | 0.0 | 0.00 | 0.00 | 0.00 | 90 | 1021.6 |
| 20260508022504 | 28 | 0 | 0.0 | 0.0 | 0.00 | 0.00 | 0.00 | 90 | 1021.5 |
| 20260508022007 | 28 | 0 | 0.0 | 0.0 | 0.00 | 0.00 | 0.00 | 90 | 1021.5 |
| 20260508021504 | 28 | 0 | 0.0 | 0.0 | 0.00 | 0.00 | 0.00 | 90 | 1021.4 |
| 20260508021005 | 28 | 0 | 0.0 | 0.0 | 0.00 | 0.00 | 0.00 | 89 | 1021.4 |
| 20260508020504 | 28 | 0 | 0.0 | 0.0 | 0.00 | 0.00 | 0.00 | 89 | 1021.3 |
| 20260508015005 | 28 | 0 | 0.0 | 0.0 | 0.00 | 0.00 | 0.00 | 89 | 1021.3 |
| 20260508014504 | 29 | 0 | 0.0 | 0.0 | 0.00 | 0.00 | 0.00 | 89 | 1021.2 |
| 20260508014005 | 29 | 203 | 0.0 | 2.0 | 0.00 | 0.00 | 0.00 | 89 | 1021.1 |
| 20260508013504 | 29 | 203 | 0.0 | 2.0 | 0.00 | 0.00 | 0.00 | 88 | 1021.1 |
| 20260508013006 | 29 | 0 | 0.0 | 0.0 | 0.00 | 0.00 | 0.00 | 87 | 1021.0 |
| 20260508012504 | 29 | 0 | 0.0 | 0.0 | 0.00 | 0.00 | 0.00 | 87 | 1021.0 |
| 20260508012005 | 29 | 0 | 0.0 | 0.0 | 0.00 | 0.00 | 0.00 | 87 | 1020.9 |
| 20260508011005 | 30 | 0 | 0.0 | 0.0 | 0.00 | 0.00 | 0.00 | 87 | 1020.8 |
| 20260508010504 | 30 | 0 | 0.0 | 0.0 | 0.00 | 0.00 | 0.00 | 87 | 1020.8 |
| 20260508010006 | 30 | 0 | 0.0 | 0.0 | 0.00 | 0.00 | 0.00 | 86 | 1020.8 |
| 20260508005504 | 31 | 0 | 0.0 | 0.0 | 0.00 | 0.00 | 0.00 | 86 | 1020.7 |
| 20260508005005 | 31 | 0 | 0.0 | 0.0 | 0.00 | 0.00 | 0.00 | 85 | 1020.7 |
| 20260508004504 | 31 | 0 | 0.0 | 0.0 | 0.00 | 0.00 | 0.00 | 85 | 1020.6 |
| 20260508004005 | 31 | 0 | 0.0 | 0.0 | 0.00 | 0.00 | 0.00 | 86 | 1020.6 |
| 20260508003504 | 32 | 0 | 0.0 | 0.0 | 0.00 | 0.00 | 0.00 | 86 | 1020.5 |
| 20260508003006 | 32 | 0 | 0.0 | 0.0 | 0.00 | 0.00 | 0.00 | 86 | 1020.5 |
| 20260508002505 | 32 | 203 | 0.0 | 1.0 | 0.00 | 0.00 | 0.00 | 86 | 1020.5 |
| 20260508002004 | 32 | 203 | 0.0 | 1.0 | 0.00 | 0.00 | 0.00 | 85 | 1020.5 |
| 20260508001505 | 32 | 203 | 0.0 | 2.0 | 0.00 | 0.00 | 0.00 | 84 | 1020.4 |
| 20260508001004 | 33 | 203 | 0.0 | 2.0 | 0.00 | 0.00 | 0.00 | 83 | 1020.4 |
| 20260508000005 | 33 | 202 | 0.0 | 2.0 | 0.00 | 0.00 | 0.00 | 82 | 1020.3 |
| 20260507235504 | 34 | 223 | 0.0 | 2.0 | 0.00 | 0.00 | 0.00 | 82 | 1020.2 |
| 20260507235006 | 34 | 282 | 0.0 | 3.0 | 0.00 | 0.00 | 0.00 | 82 | 1020.2 |
| 20260507234504 | 34 | 281 | 0.0 | 3.0 | 0.00 | 0.00 | 0.00 | 82 | 1020.1 |
| 20260507234005 | 34 | 276 | 0.0 | 2.0 | 0.00 | 0.00 | 0.00 | 81 | 1020.0 |
| 20260507233504 | 35 | 271 | 0.0 | 2.0 | 0.00 | 0.00 | 0.00 | 80 | 1020.1 |
| 20260507233006 | 35 | 269 | 1.0 | 3.0 | 0.00 | 0.00 | 0.00 | 81 | 1020.0 |
| 20260507231504 | 35 | 282 | 1.0 | 5.0 | 0.00 | 0.00 | 0.00 | 80 | 1019.9 |
| 20260507231006 | 35 | 274 | 1.0 | 7.0 | 0.00 | 0.00 | 0.00 | 80 | 1019.9 |
| 20260507230504 | 35 | 273 | 1.0 | 7.0 | 0.00 | 0.00 | 0.00 | 80 | 1019.8 |
| 20260507230005 | 35 | 265 | 0.0 | 2.0 | 0.00 | 0.00 | 0.00 | 79 | 1019.8 |
| 20260507225504 | 35 | 235 | 0.0 | 2.0 | 0.00 | 0.00 | 0.00 | 79 | 1019.7 |
| 20260507224504 | 35 | 274 | 1.0 | 4.0 | 0.00 | 0.00 | 0.00 | 79 | 1019.6 |
| 20260507222505 | 35 | 253 | 0.0 | 2.0 | 0.00 | 0.00 | 0.00 | 79 | 1019.4 |
| 20260507222004 | 35 | 253 | 0.0 | 4.0 | 0.00 | 0.00 | 0.00 | 79 | 1019.4 |
| 20260507221505 | 34 | 242 | 1.0 | 4.0 | 0.00 | 0.00 | 0.00 | 79 | 1019.3 |
| 20260507221004 | 34 | 234 | 0.0 | 3.0 | 0.00 | 0.00 | 0.00 | 79 | 1019.3 |
| 20260507220505 | 34 | 248 | 0.0 | 2.0 | 0.00 | 0.00 | 0.00 | 79 | 1019.2 |
| 20260507220004 | 34 | 248 | 0.0 | 2.0 | 0.00 | 0.00 | 0.00 | 78 | 1019.3 |
| 20260507215505 | 34 | 251 | 0.0 | 2.0 | 0.00 | 0.00 | 0.00 | 78 | 1019.2 |
| 20260507215004 | 35 | 251 | 0.0 | 2.0 | 0.00 | 0.00 | 0.00 | 77 | 1019.1 |
| 20260507214505 | 35 | 252 | 0.0 | 1.0 | 0.00 | 0.00 | 0.00 | 77 | 1019.0 |
| 20260507214004 | 35 | 0 | 0.0 | 0.0 | 0.00 | 0.00 | 0.00 | 77 | 1019.0 |
| 20260507213004 | 35 | 257 | 0.0 | 3.0 | 0.00 | 0.00 | 0.00 | 77 | 1018.9 |
| 20260507212506 | 35 | 267 | 1.0 | 3.0 | 0.00 | 0.00 | 0.00 | 78 | 1018.8 |
| 20260507212003 | 35 | 270 | 0.0 | 2.0 | 0.00 | 0.00 | 0.00 | 78 | 1018.8 |
| 20260507211506 | 34 | 257 | 0.0 | 1.0 | 0.00 | 0.00 | 0.00 | 77 | 1018.8 |
| 20260507211004 | 35 | 257 | 0.0 | 1.0 | 0.00 | 0.00 | 0.00 | 76 | 1018.8 |
| 20260507210506 | 35 | 257 | 0.0 | 1.0 | 0.00 | 0.00 | 0.00 | 76 | 1018.7 |
| 20260507210006 | 35 | 257 | 0.0 | 1.0 | 0.00 | 0.00 | 0.00 | 75 | 1018.6 |
| 20260507205004 | 36 | 0 | 0.0 | 0.0 | 0.00 | 0.00 | 0.00 | 74 | 1018.6 |
| 20260507204505 | 36 | 0 | 0.0 | 0.0 | 0.00 | 0.00 | 0.00 | 73 | 1018.6 |
| 20260507204004 | 36 | 257 | 0.0 | 1.0 | 0.00 | 0.00 | 0.00 | 73 | 1018.5 |
| 20260507203505 | 36 | 252 | 0.0 | 2.0 | 0.00 | 0.00 | 0.00 | 73 | 1018.4 |
| 20260507203006 | 37 | 250 | 1.0 | 4.0 | 0.00 | 0.00 | 0.00 | 73 | 1018.4 |
| 20260507202504 | 37 | 250 | 1.0 | 4.0 | 0.00 | 0.00 | 0.00 | 73 | 1018.3 |
| 20260507202005 | 37 | 265 | 0.0 | 1.0 | 0.00 | 0.00 | 0.00 | 72 | 1018.3 |
| 20260507201504 | 37 | 0 | 0.0 | 0.0 | 0.00 | 0.00 | 0.00 | 71 | 1018.3 |
| 20260507201005 | 38 | 0 | 0.0 | 0.0 | 0.00 | 0.00 | 0.00 | 70 | 1018.2 |
| 20260507200006 | 38 | 265 | 0.0 | 2.0 | 0.00 | 0.00 | 0.00 | 69 | 1018.2 |
| 20260507195504 | 38 | 264 | 0.0 | 2.0 | 0.00 | 0.00 | 0.00 | 69 | 1018.2 |
| 20260507195006 | 39 | 264 | 0.0 | 2.0 | 0.00 | 0.00 | 0.00 | 68 | 1018.1 |
| 20260507194006 | 39 | 264 | 0.0 | 2.0 | 0.00 | 0.00 | 0.00 | 67 | 1017.9 |
| 20260507193006 | 40 | 260 | 0.0 | 4.0 | 0.00 | 0.00 | 0.00 | 65 | 1017.8 |
| 20260507192006 | 40 | 266 | 0.0 | 3.0 | 0.00 | 0.00 | 0.00 | 65 | 1017.7 |
| 20260507191504 | 41 | 274 | 0.0 | 3.0 | 0.00 | 0.00 | 0.00 | 64 | 1017.7 |
| 20260507191006 | 41 | 276 | 0.0 | 3.0 | 0.00 | 0.00 | 0.00 | 64 | 1017.6 |
| 20260507190005 | 41 | 275 | 1.0 | 6.0 | 0.00 | 0.00 | 0.00 | 63 | 1017.5 |
| 20260507185506 | 42 | 277 | 0.0 | 6.0 | 0.00 | 0.00 | 0.00 | 62 | 1017.5 |
| 20260507185004 | 42 | 299 | 0.0 | 3.0 | 0.00 | 0.00 | 0.00 | 62 | 1017.4 |
| 20260507184505 | 42 | 306 | 0.0 | 5.0 | 0.00 | 0.00 | 0.00 | 62 | 1017.4 |
| 20260507184004 | 42 | 298 | 1.0 | 5.0 | 0.00 | 0.00 | 0.00 | 61 | 1017.3 |
| 20260507183507 | 42 | 292 | 0.0 | 5.0 | 0.00 | 0.00 | 0.00 | 61 | 1017.3 |
| 20260507182506 | 43 | 287 | 1.0 | 4.0 | 0.00 | 0.00 | 0.00 | 60 | 1017.1 |
| 20260507182004 | 43 | 279 | 1.0 | 7.0 | 0.00 | 0.00 | 0.00 | 60 | 1017.1 |
| 20260507181004 | 43 | 282 | 1.0 | 8.0 | 0.00 | 0.00 | 0.00 | 58 | 1017.0 |
| 20260507180506 | 44 | 284 | 1.0 | 8.0 | 0.00 | 0.00 | 0.00 | 58 | 1016.9 |
| 20260507180004 | 44 | 296 | 1.0 | 6.0 | 0.00 | 0.00 | 0.00 | 57 | 1016.9 |
| 20260507175506 | 44 | 287 | 2.0 | 9.0 | 0.00 | 0.00 | 0.00 | 56 | 1016.8 |
| 20260507174505 | 44 | 277 | 2.0 | 11.0 | 0.00 | 0.00 | 0.00 | 54 | 1016.7 |
| 20260507174004 | 45 | 283 | 2.0 | 11.0 | 0.00 | 0.00 | 0.00 | 53 | 1016.7 |
| 20260507173505 | 45 | 281 | 4.0 | 15.0 | 0.00 | 0.00 | 0.00 | 52 | 1016.6 |
| 20260507173004 | 45 | 278 | 3.0 | 15.0 | 0.00 | 0.00 | 0.00 | 50 | 1016.5 |
| 20260507172506 | 46 | 304 | 1.0 | 6.0 | 0.00 | 0.00 | 0.00 | 50 | 1016.4 |
| 20260507172005 | 46 | 307 | 2.0 | 8.0 | 0.00 | 0.00 | 0.00 | 49 | 1016.4 |
| 20260507171505 | 46 | 295 | 2.0 | 8.0 | 0.00 | 0.00 | 0.00 | 49 | 1016.4 |
| 20260507171004 | 47 | 286 | 2.0 | 10.0 | 0.00 | 0.00 | 0.00 | 52 | 1016.3 |
| 20260507170006 | 47 | 313 | 2.0 | 8.0 | 0.00 | 0.00 | 0.00 | 49 | 1016.1 |
| 20260507165504 | 47 | 317 | 1.0 | 8.0 | 0.00 | 0.00 | 0.00 | 48 | 1016.1 |
| 20260507165005 | 47 | 294 | 2.0 | 10.0 | 0.00 | 0.00 | 0.00 | 47 | 1016.0 |
| 20260507164504 | 47 | 273 | 4.0 | 11.0 | 0.00 | 0.00 | 0.00 | 47 | 1016.0 |
| 20260507164006 | 48 | 265 | 4.0 | 16.0 | 0.00 | 0.00 | 0.00 | 46 | 1015.9 |
| 20260507163504 | 48 | 274 | 3.0 | 16.0 | 0.00 | 0.00 | 0.00 | 45 | 1015.9 |
| 20260507163006 | 48 | 295 | 2.0 | 7.0 | 0.00 | 0.00 | 0.00 | 46 | 1015.9 |
| 20260507162006 | 48 | 285 | 3.0 | 11.0 | 0.00 | 0.00 | 0.00 | 44 | 1015.8 |
| 20260507161506 | 48 | 284 | 2.0 | 9.0 | 0.00 | 0.00 | 0.00 | 43 | 1015.7 |
| 20260507161005 | 49 | 293 | 2.0 | 13.0 | 0.00 | 0.00 | 0.00 | 43 | 1015.7 |
| 20260507160504 | 48 | 301 | 2.0 | 13.0 | 0.00 | 0.00 | 0.00 | 44 | 1015.6 |
| 20260507160005 | 49 | 304 | 1.0 | 8.0 | 0.00 | 0.00 | 0.00 | 43 | 1015.6 |
| 20260507155504 | 49 | 283 | 3.0 | 15.0 | 0.00 | 0.00 | 0.00 | 44 | 1015.6 |
| 20260507154504 | 49 | 277 | 4.0 | 15.0 | 0.00 | 0.00 | 0.00 | 44 | 1015.4 |
| 20260507154008 | 49 | 280 | 4.0 | 13.0 | 0.00 | 0.00 | 0.00 | 42 | 1015.4 |
| 20260507153506 | 49 | 283 | 3.0 | 14.0 | 0.00 | 0.00 | 0.00 | 44 | 1015.3 |
| 20260507153004 | 50 | 276 | 4.0 | 14.0 | 0.00 | 0.00 | 0.00 | 43 | 1015.3 |
| 20260507152004 | 50 | 285 | 4.0 | 14.0 | 0.00 | 0.00 | 0.00 | 42 | 1015.2 |
| 20260507151506 | 50 | 303 | 3.0 | 16.0 | 0.00 | 0.00 | 0.00 | 42 | 1015.1 |
| 20260507151004 | 50 | 283 | 4.0 | 16.0 | 0.00 | 0.00 | 0.00 | 41 | 1015.1 |
| 20260507150506 | 50 | 279 | 5.0 | 16.0 | 0.00 | 0.00 | 0.00 | 39 | 1015.0 |
| 20260507150005 | 50 | 280 | 3.0 | 15.0 | 0.00 | 0.00 | 0.00 | 38 | 1015.0 |
| 20260507145506 | 51 | 265 | 3.0 | 13.0 | 0.00 | 0.00 | 0.00 | 40 | 1014.9 |
| 20260507144506 | 51 | 286 | 4.0 | 17.0 | 0.00 | 0.00 | 0.00 | 40 | 1014.9 |
| 20260507144004 | 50 | 272 | 5.0 | 16.0 | 0.00 | 0.00 | 0.00 | 41 | 1014.7 |
| 20260507143506 | 50 | 263 | 5.0 | 16.0 | 0.00 | 0.00 | 0.00 | 43 | 1014.7 |
| 20260507143004 | 50 | 270 | 4.0 | 14.0 | 0.00 | 0.00 | 0.00 | 45 | 1014.7 |
| 20260507142506 | 51 | 274 | 4.0 | 14.0 | 0.00 | 0.00 | 0.00 | 46 | 1014.5 |
| 20260507142004 | 50 | 280 | 5.0 | 17.0 | 0.00 | 0.00 | 0.00 | 47 | 1014.5 |
| 20260507141505 | 51 | 282 | 5.0 | 17.0 | 0.00 | 0.00 | 0.00 | 45 | 1014.5 |
| 20260507140505 | 51 | 271 | 6.0 | 17.0 | 0.00 | 0.00 | 0.00 | 42 | 1014.4 |
| 20260507140005 | 51 | 261 | 7.0 | 17.0 | 0.00 | 0.00 | 0.00 | 42 | 1014.3 |
| 20260507135506 | 51 | 256 | 7.0 | 18.0 | 0.00 | 0.00 | 0.00 | 43 | 1014.3 |
| 20260507135006 | 51 | 253 | 8.0 | 18.0 | 0.00 | 0.00 | 0.00 | 43 | 1014.2 |
| 20260507134504 | 51 | 249 | 8.0 | 15.0 | 0.00 | 0.00 | 0.00 | 42 | 1014.2 |
| 20260507134006 | 51 | 253 | 7.0 | 17.0 | 0.00 | 0.00 | 0.00 | 44 | 1014.1 |
| 20260507133504 | 51 | 252 | 7.0 | 18.0 | 0.00 | 0.00 | 0.00 | 46 | 1014.1 |
| 20260507132504 | 51 | 239 | 7.0 | 18.0 | 0.00 | 0.00 | 0.00 | 46 | 1014.1 |
| 20260507131504 | 51 | 221 | 8.0 | 16.0 | 0.00 | 0.00 | 0.00 | 45 | 1013.9 |
| 20260507131006 | 52 | 227 | 7.0 | 16.0 | 0.00 | 0.00 | 0.00 | 45 | 1013.9 |
| 20260507130504 | 51 | 240 | 7.0 | 15.0 | 0.00 | 0.00 | 0.00 | 46 | 1013.9 |
| 20260507130006 | 51 | 242 | 6.0 | 14.0 | 0.00 | 0.00 | 0.00 | 47 | 1014.0 |
| 20260507125504 | 51 | 247 | 6.0 | 14.0 | 0.00 | 0.00 | 0.00 | 48 | 1014.0 |
| 20260507125006 | 50 | 248 | 6.0 | 14.0 | 0.00 | 0.00 | 0.00 | 48 | 1014.0 |
| 20260507124504 | 50 | 231 | 7.0 | 14.0 | 0.00 | 0.00 | 0.00 | 48 | 1014.1 |
| 20260507123504 | 51 | 215 | 7.0 | 14.0 | 0.00 | 0.00 | 0.00 | 48 | 1014.1 |
| 20260507123005 | 51 | 219 | 7.0 | 13.0 | 0.00 | 0.00 | 0.00 | 45 | 1014.1 |
| 20260507122504 | 51 | 205 | 8.0 | 16.0 | 0.00 | 0.00 | 0.00 | 45 | 1014.0 |
| 20260507122006 | 51 | 211 | 8.0 | 16.0 | 0.00 | 0.00 | 0.00 | 45 | 1014.0 |
| 20260507121504 | 51 | 247 | 7.0 | 15.0 | 0.00 | 0.00 | 0.00 | 47 | 1014.0 |
| 20260507121006 | 50 | 236 | 7.0 | 15.0 | 0.00 | 0.00 | 0.00 | 47 | 1014.0 |
| 20260507120505 | 49 | 224 | 7.0 | 15.0 | 0.00 | 0.00 | 0.00 | 46 | 1014.0 |
| 20260507120005 | 49 | 234 | 7.0 | 14.0 | 0.00 | 0.00 | 0.00 | 46 | 1014.0 |
| 20260507115505 | 50 | 233 | 8.0 | 14.0 | 0.00 | 0.00 | 0.00 | 45 | 1014.1 |
| 20260507115004 | 50 | 221 | 7.0 | 17.0 | 0.00 | 0.00 | 0.00 | 44 | 1014.1 |
| 20260507114505 | 51 | 218 | 7.0 | 17.0 | 0.00 | 0.00 | 0.00 | 42 | 1014.1 |
| 20260507114004 | 52 | 216 | 7.0 | 14.0 | 0.00 | 0.00 | 0.00 | 42 | 1014.0 |
| 20260507113506 | 52 | 212 | 7.0 | 14.0 | 0.00 | 0.00 | 0.00 | 41 | 1014.1 |
| 20260507113005 | 51 | 230 | 7.0 | 15.0 | 0.00 | 0.00 | 0.00 | 41 | 1014.1 |
| 20260507112005 | 51 | 245 | 7.0 | 15.0 | 0.00 | 0.00 | 0.00 | 39 | 1014.1 |
| 20260507111507 | 51 | 229 | 6.0 | 15.0 | 0.00 | 0.00 | 0.00 | 38 | 1014.1 |
| 20260507110506 | 50 | 234 | 6.0 | 16.0 | 0.00 | 0.00 | 0.00 | 36 | 1014.0 |
| 20260507110004 | 49 | 217 | 6.0 | 14.0 | 0.00 | 0.00 | 0.00 | 36 | 1014.0 |
| 20260507105506 | 49 | 190 | 5.0 | 10.0 | 0.00 | 0.00 | 0.00 | 36 | 1013.9 |
| 20260507105004 | 49 | 194 | 5.0 | 10.0 | 0.00 | 0.00 | 0.00 | 36 | 1013.9 |
| 20260507104506 | 49 | 219 | 7.0 | 19.0 | 0.00 | 0.00 | 0.00 | 36 | 1014.0 |
| 20260507104004 | 49 | 236 | 7.0 | 19.0 | 0.00 | 0.00 | 0.00 | 36 | 1014.2 |
| 20260507103506 | 50 | 230 | 6.0 | 14.0 | 0.00 | 0.00 | 0.00 | 35 | 1014.0 |
| 20260507103004 | 49 | 225 | 6.0 | 13.0 | 0.00 | 0.00 | 0.00 | 35 | 1013.9 |
| 20260507102006 | 50 | 215 | 7.0 | 18.0 | 0.00 | 0.00 | 0.00 | 34 | 1013.9 |
| 20260507101504 | 50 | 224 | 6.0 | 13.0 | 0.00 | 0.00 | 0.00 | 35 | 1013.9 |
| 20260507100504 | 49 | 193 | 5.0 | 12.0 | 0.00 | 0.00 | 0.00 | 34 | 1013.8 |
| 20260507100006 | 49 | 193 | 6.0 | 13.0 | 0.00 | 0.00 | 0.00 | 34 | 1013.9 |
| 20260507095006 | 49 | 195 | 8.0 | 16.0 | 0.00 | 0.00 | 0.00 | 33 | 1013.9 |
| 20260507094505 | 50 | 183 | 8.0 | 19.0 | 0.00 | 0.00 | 0.00 | 33 | 1013.9 |
| 20260507093504 | 51 | 197 | 3.0 | 13.0 | 0.00 | 0.00 | 0.00 | 30 | 1013.9 |
| 20260507093006 | 50 | 206 | 4.0 | 9.0 | 0.00 | 0.00 | 0.00 | 30 | 1013.9 |